Terminal Aerodrome Forecast
Issued by NWS Columbia, SC

Home | Current Version | Previous Version | Text Only | Print | Product List | Glossary On
Versions: 1 2 3 4 5 6 7 8 9 10 11 12 13 14 15 16 17 18 19 20 21 22 23 24 25 26 27 28 29 30 31 32 33 34 35 36 37 38 39 40 41 42 43 44 45 46
162
FTUS42 KCAE 231137
TAFAGS
TAF
KAGS 231137Z 2312/2412 23007KT P6SM SKC
     FM231500 23007KT P6SM SCT050
     FM232000 21009KT P6SM VCTS BKN050CB
     FM240200 22004KT P6SM SCT050 BKN150=

USA.gov is the U.S. government's official web portal to all federal, state and local government web resources and services.